Hourly Weather Roundup
Issued by NWS Central Illinois

Home | Current Version | Previous Version | Text Only | Print | Product List | Glossary On
Versions: 1 2 3 4 5 6 7 8 9 10 11 12 13 14 15 16 17 18 19 20 21 22 23 24 25 26 27 28 29 30 31 32 33 34 35 36 37 38 39 40 41 42 43 44 45 46 47 48 49 50
000
NZUS43 KILX 161410
HWRILX

AREA WEATHER ROUNDUP
NATIONAL WEATHER SERVICE, LINCOLN IL
800 AM CST MON JAN 16 2017


CITY           SKY/WX    TMP DP  RH WIND       PRES   REMARKS
BLOOMINGTON    FOG       33  33 100 E8        30.21R VSB 1/8 WCI  26
CHAMPAIGN      FOG       35  34  96 E10       30.20F VSB 1/4 WCI  27
DANVILLE       CLOUDY    34  34  99 E6        30.20S FOG     WCI  29
DECATUR        FOG       34  34 100 E7        30.19S VSB 1/4 WCI  28
EFFINGHAM      FOG       40  40 100 E5        30.20F VSB 1/2
FLORA          FOG       41  41  99 E6        30.19F VSB 1/2
GALESBURG      MIX PCPN  32  32 100 E7        30.17S VSB 1   WCI  26
JACKSONVILLE   LGT RAIN  34  34 100 E8        30.13F VSB 1/2 WCI  27
LACON          CLOUDY    32  32 100 E6        30.21S FOG     WCI  26
LAWRENCEVILLE  CLOUDY    41  41 100 E7        30.22F FOG
LITCHFIELD     FOG       38  38 100 SE8       30.13F VSB 1/2 WCI  32
$$


CITY           SKY/WX    TMP DP  RH WIND       PRES   REMARKS
LINCOLN        FOG       35  35 100 E6        30.19S VSB 3/4 WCI  30
MACOMB         MIX PCPN  33  33 100 E10       30.17S VSB 3/4 WCI  24
MATTOON        FOG       38  37  97 SE8       30.19S VSB 1/4 WCI  32
MT CARMEL AP   CLOUDY    41  40  95 E7        30.21F FOG
OLNEY-NOBLE AP FOG       39  39 100 E7        30.20F VSB 3/4 WCI  34
PARIS          FOG       37  37 100 SE6       30.23S VSB 1/2 WCI  32
PEORIA         FOG       34  34 100 E8        30.19S VSB<1/4 WCI  27
PONTIAC        MIX PCPN  33  33 100 E10       30.23F VSB 1/2 WCI  25
RANTOUL        FOG       36  36  99 E6        30.21S VSB 1/4 WCI  31
SPRINGFIELD    FOG       36  35  96 E8        30.16F VSB<1/4 WCI  30
TAYLORVILLE    FOG       35  35 100 E7        30.16F VSB 1/2 WCI  29
$$

...REGIONAL REPORTS...


CITY           SKY/WX    TMP DP  RH WIND       PRES   REMARKS
CHICAGO O`HARE FRZ RAIN  32  30  92 E6        30.25F WCI  26
KANKAKEE       FOG       32  32  99 CALM      30.26S VSB 1
MOLINE         LGT RAIN  33  31  92 E9        30.18F FOG     WCI  25
MOUNT STERLING FOG       33  33  99 E12       30.10F VSB 1/2 WCI  24
MOUNT VERNON   FOG       42  42 100 E6        30.18S VSB 3/4
PITTSFIELD     FOG       35  35 100 E6        30.12S VSB 1/2 WCI  30
QUINCY         LGT RAIN  34  34 100 E10       30.09F VSB 1/2 WCI  26
ROCKFORD       FRZ RAIN  32  28  85 E6        30.24F WCI  26
$$


CITY           SKY/WX    TMP DP  RH WIND       PRES   REMARKS
BURLINGTON     LGT RAIN  33  33 100 E9        30.13F FOG     WCI  25
CEDAR RAPIDS   FRZ RAIN  31  30  96 E13       30.14S FOG     WCI  21
DES MOINES     FRZ RAIN  33  31  92 E8        30.07F FOG     WCI  26
KIRKSVILLE     FRZ RAIN  33  33 100 E9        30.05F FOG     WCI  25
OTTUMWA        HVY RAIN  33  30  88 E14       30.09F FOG     WCI  23
ST LOUIS       FOG       41  39  93 E10       30.11S VSB 1/4 WCI  35
$$


CITY           SKY/WX    TMP DP  RH WIND       PRES   REMARKS
TERRE HAUTE    CLOUDY    39  37  92 SE6       30.23S FOG     WCI  35
EVANSVILLE     CLOUDY    42  40  92 NE7       30.21F
INDIANAPOLIS   CLOUDY    38  36  92 SE8       30.25R FOG     WCI  32
LAFAYETTE      CLOUDY    35  34  96 E5        30.24S FOG     WCI  31
MADISON        FRZ RAIN  29  26  89 S5        30.22S FOG     WCI  24
MILWAUKEE      FRZ RAIN  31  26  82 CALM      30.26S FOG
$$






USA.gov is the U.S. government's official web portal to all federal, state and local government web resources and services.